Location: Contre
(49.7477°N, 2.0963°E)
Time: 15:21:22
(UTC+00:00)

SL-08 ROCKET BODY - Pass Details

Date: 03 February 2023
Orbit: 896 x 963 km, 83.0° (Epoch: 26 March)

Event Time Altitude Azimuth Distance (km) Brightness Sun altitude
Rises 17:29:34 0° 352° (N) 3,552 7.3 -6.9°
Reaches altitude 10° 17:32:06 10° 357° (N) 2,599 6.6 -7.3°
Maximum altitude 17:37:55 59° 76° (ENE) 1,036 4.4 -8.2°
Drops below altitude 10° 17:43:40 10° 156° (SSE) 2,565 6.6 -9.0°
Sets 17:46:08 0° 160° (SSE) 3,501 7.4 -9.4°
